Location: Voyageurs National Park
(48.5020°N, 92.9292°W)
Time: 11:59:25
(UTC-06:00)

Cosmos 1408 Rocket - Pass Details

Date: 19 January 2018
Orbit: 602 x 630 km, 82.6° (Epoch: 24 February)

Event Time Altitude Azimuth Distance (km) Brightness Sun altitude
Exits shadow 06:20:20 11° 337° (NNW) 1,897 5.7 -15.4°
Maximum altitude 06:24:16 43° 267° (W) 868 3.9 -14.8°
Drops below altitude 10° 06:28:24 10° 196° (SSW) 1,977 6.1 -14.1°
Sets 06:30:42 0° 190° (S) 2,883 7.1 -13.7°
